Weather History for New Bedford, MA

Change the Weather History Date:

Wednesday, August 28, 2013

  Actual Average Record
Temperature  
Mean Temperature 72 °F -  
Max Temperature 82 °F 80 °F 96 °F (1991)
Min Temperature 63 °F 66 °F 50 °F (2008)
Cooling Degree Days 8    
Growing Degree Days 22 (Base 50)    
Moisture  
Dew Point 66 °F    
Average Humidity 90    
Maximum Humidity 100    
Minimum Humidity 60    
Precipitation  
Precipitation 0.00 in - - ()
Sea Level Pressure  
Sea Level Pressure 29.89 in    
Wind  
Wind Speed 1 mph (ESE)    
Max Wind Speed 9 mph    
Max Gust Speed -    
Visibility 4 miles    
Events Fog    
Averages and records for this station are not official NWS values.
T = Trace of Precipitation, MM = Missing Value Source: NWS Daily Summary

Daily Weather History Graph

Daily Weather History Graph

Search for Another Location

Airport:

Trip Planner

Search our weather history database for the weather conditions in past years. The results will help you decide how hot, cold, wet, or windy it might be!

Date:

Astronomy

Aug. 28, 2013 Rise Set
Actual Time 6:05 AM EDT 7:23 PM EDT
Civil Twilight 5:37 AM EDT 7:52 PM EDT
Nautical Twilight 5:02 AM EDT 8:26 PM EDT
Astronomical Twilight 4:26 AM EDT 9:02 PM EDT
Moon 11:53 PM EDT (8/28) 2:00 PM EDT (8/28)
Length of Visible Light 14h 14m
Length of Day
13h 17m
Waning Gibbous, 47% of the Moon is Illuminated
Aug 28
Waning Gibbous
Sep 5
New
Sep 12
First Quarter
Sep 19
Full
Sep 26
Last Quarter

Hourly Weather History & Observations

Time (EDT) Temp. Heat Index Dew Point Humidity Pressure Visibility Wind Dir Wind Speed Gust Speed Precip Events Conditions
12:08 AM 66.2 °F - 66.2 °F 100% 29.89 in 0.5 mi Calm Calm - N/A Fog Fog
12:19 AM 66.2 °F - 66.2 °F 100% 29.89 in 0.2 mi Calm Calm - N/A Fog Fog
12:53 AM 66.9 °F - 66.9 °F 100% 29.89 in 0.2 mi Calm Calm - N/A Fog Fog
1:00 AM 66.2 °F - 66.2 °F 100% 29.88 in 0.2 mi Calm Calm - N/A Fog Fog
1:07 AM 66.2 °F - 66.2 °F 100% 29.88 in 0.2 mi Calm Calm - N/A Fog Fog
1:33 AM 66.2 °F - 66.2 °F 100% 29.87 in 0.2 mi Calm Calm - N/A Fog Fog
1:48 AM 66.2 °F - 66.2 °F 100% 29.87 in 0.2 mi Calm Calm - N/A Fog Fog
1:53 AM 66.0 °F - 66.0 °F 100% 29.87 in 0.2 mi West 3.5 mph - N/A Fog Fog
2:00 AM 66.2 °F - 66.2 °F 100% 29.87 in 0.2 mi Calm Calm - N/A Fog Fog
2:53 AM 66.0 °F - 64.9 °F 96% 29.86 in 0.2 mi Calm Calm - N/A Fog Fog
3:53 AM 64.9 °F - 64.0 °F 97% 29.86 in 0.2 mi Calm Calm - N/A Fog Fog
4:53 AM 64.0 °F - 63.0 °F 96% 29.86 in 0.2 mi Calm Calm - N/A Fog Fog
5:53 AM 63.0 °F - 63.0 °F 100% 29.87 in 0.2 mi Calm Calm - N/A Fog Fog
6:53 AM 64.0 °F - 64.0 °F 100% 29.89 in 0.2 mi Calm Calm - N/A Fog Fog
7:01 AM 64.4 °F - 64.4 °F 100% 29.89 in 0.2 mi Calm Calm - N/A Fog Fog
7:18 AM 64.4 °F - 64.4 °F 100% 29.89 in 0.2 mi Calm Calm - N/A Fog Fog
7:53 AM 66.0 °F - 66.0 °F 100% 29.89 in 0.2 mi Calm Calm - N/A Fog Fog
8:06 AM 66.2 °F - 66.2 °F 100% 29.90 in 0.8 mi Calm Calm - N/A   Overcast
8:13 AM 66.2 °F - 66.2 °F 100% 29.89 in 1.0 mi Calm Calm - N/A   Overcast
8:29 AM 66.2 °F - 66.2 °F 100% 29.89 in 2.5 mi Calm Calm - N/A   Mostly Cloudy
8:45 AM 68.0 °F - 66.2 °F 94% 29.89 in 4.0 mi Calm Calm - N/A   Mostly Cloudy
8:53 AM 70.0 °F - 66.9 °F 90% 29.89 in 5.0 mi Variable 4.6 mph - N/A   Mostly Cloudy
9:17 AM 71.6 °F - 66.2 °F 83% 29.90 in 7.0 mi Variable 3.5 mph - N/A   Mostly Cloudy
9:44 AM 71.6 °F - 66.2 °F 83% 29.90 in 8.0 mi Calm Calm - N/A   Scattered Clouds
9:53 AM 73.9 °F - 66.9 °F 79% 29.90 in 9.0 mi ENE 4.6 mph - N/A   Partly Cloudy
10:53 AM 75.9 °F - 66.9 °F 74% 29.89 in 10.0 mi Variable 4.6 mph - N/A   Clear
11:53 AM 79.0 °F - 66.9 °F 66% 29.88 in 10.0 mi Calm Calm - N/A   Clear
12:53 PM 82.0 °F 84.5 °F 66.9 °F 60% 29.88 in 10.0 mi Calm Calm - N/A   Scattered Clouds
1:53 PM 81.0 °F 84.1 °F 69.1 °F 67% 29.87 in 10.0 mi Variable 3.5 mph - N/A   Scattered Clouds
2:53 PM 82.0 °F 84.9 °F 68.0 °F 62% 29.86 in 10.0 mi SE 9.2 mph - N/A   Partly Cloudy
3:53 PM 80.1 °F 82.7 °F 68.0 °F 67% 29.86 in 10.0 mi SE 9.2 mph - N/A   Clear
4:53 PM 80.1 °F 82.7 °F 68.0 °F 67% 29.87 in 10.0 mi South 6.9 mph - N/A   Clear
5:53 PM 78.1 °F - 68.0 °F 71% 29.88 in 10.0 mi Variable 4.6 mph - N/A   Scattered Clouds
6:53 PM 73.9 °F - 66.9 °F 79% 29.89 in 10.0 mi ESE 3.5 mph - N/A   Clear
7:53 PM 70.0 °F - 66.9 °F 90% 29.89 in 7.0 mi Calm Calm - N/A   Clear
8:23 PM 69.8 °F - 66.2 °F 88% 29.91 in 4.0 mi ESE 5.8 mph - N/A   Scattered Clouds
8:31 PM 68.0 °F - 68.0 °F 100% 29.91 in 3.0 mi ESE 4.6 mph - N/A   Mostly Cloudy
8:53 PM 69.1 °F - 66.9 °F 93% 29.92 in 4.0 mi Calm Calm - N/A   Overcast
9:53 PM 69.1 °F - 66.9 °F 93% 29.93 in 4.0 mi ENE 3.5 mph - N/A   Overcast
10:12 PM 68.0 °F - 66.2 °F 94% 29.92 in 1.8 mi East 4.6 mph - N/A   Overcast
10:40 PM 66.2 °F - 66.2 °F 100% 29.93 in 0.5 mi East 3.5 mph - N/A Fog Fog
10:53 PM 66.9 °F - 66.9 °F 100% 29.94 in 0.5 mi East 3.5 mph - N/A Fog Fog
11:53 PM 66.9 °F - 66.0 °F 97% 29.94 in 1.5 mi NNE 5.8 mph - N/A   Overcast